Lapse_Rate
-0.3 -0.6 -0.8 -0.9 -1.1 -1.2 -1.4 -1.7 -2.4 -3.1 -3.4 -3.7 -4.1 -4.5 -4.9 -5.5 -5.9 -2.0 1.3 3.1 1.3 0.4 1.1 1.6 2.5 4.3 5.5 5.8 6.2 6.5 6.5 6.5 6.6 6.6 6.5 5.9 6.5 7.0 7.0 7.1 7.3 6.9 5.1 5.6 5.3
-0.3 -0.4 -0.6 -0.7 -0.8 -1.2 -1.4 -1.4 -1.5 -1.9 -2.7 -3.5 -3.7 -4.1 -4.4 -4.7 -5.1 -2.8 0.4 1.7 1.1 1.1 1.3 2.0 2.7 3.9 4.2 5.1 5.1 5.9 6.5 6.4 6.5 6.4 6.5 6.5 6.4 6.7 6.7 6.6 6.6 5.7 5.8 5.1 5.8
-0.0 -0.3 -0.4 -0.4 -0.6 -0.8 -1.2 -1.4 -1.6 -1.6 -2.0 -2.5 -3.2 -3.7 -3.8 -4.1 1.1 2.3 2.1 0.9 0.1 1.2 3.2 3.8 3.6 4.2 5.3 4.7 5.3 5.9 6.5 6.5 6.1 5.3 6.3 6.3 6.4 6.8 6.5 6.5 6.2 6.3 5.4 5.4 5.7
-0.1 -0.3 -0.3 -0.4 -0.5 -0.6 -0.6 -1.1 -1.4 -1.9 -2.0 -2.3 -2.4 -3.2 -3.3 -2.6 6.5 3.9 1.2 0.4 0.7 2.1 5.1 5.3 5.1 5.4 6.2 6.5 5.2 6.5 5.8 6.0 5.9 6.0 6.2 6.5 6.0 6.5 6.4 6.2 5.6 4.8 4.3 5.1 5.7
-0.1 -0.3 -0.5 -0.6 -0.7 -0.9 -0.9 -1.2 -1.5 -1.8 -2.1 -2.1 -2.4 -2.4 -2.1 3.1 1.9 2.2 2.0 1.1 0.0 1.9 4.4 5.3 5.4 4.8 6.4 6.2 6.1 6.5 6.6 5.3 4.8 6.0 5.9 6.3 6.4 6.5 6.4 5.8 5.3 6.5 6.4 5.9 5.6
-0.1 -0.3 -0.7 -0.9 -1.0 -1.3 -1.6 -1.9 -1.9 -2.2 -2.3 -2.3 -2.3 -2.2 -0.0 6.0 2.4 2.8 2.1 0.2 0.9 1.8 3.3 5.3 4.8 4.1 5.4 6.1 6.5 6.0 5.8 6.0 5.4 6.4 6.6 6.5 6.4 6.2 6.3 6.3 6.4 6.5 6.8 6.9 6.0
0.0 -0.4 -0.8 -0.9 -1.3 -1.5 -1.9 -2.1 -2.5 -2.9 -2.9 -2.7 -2.2 -1.4 1.2 2.3 3.6 1.8 2.0 2.8 1.2 2.1 3.0 4.0 4.9 5.7 5.8 6.4 5.6 5.8 6.5 6.4 6.4 5.8 6.5 6.2 6.5 6.4 6.4 6.6 7.0 7.0 7.2 7.4 7.0
-0.0 -0.3 -0.7 -1.0 -1.3 -1.8 -2.2 -2.7 -2.9 -2.4 -2.1 -2.8 -1.9 -0.8 2.5 0.9 0.9 0.8 2.1 2.6 3.7 3.9 4.9 5.1 5.1 5.3 6.2 5.5 5.4 6.5 6.5 6.4 6.5 6.3 6.4 6.1 6.5 6.5 6.2 6.5 6.7 7.1 7.4 7.4 6.8
-0.1 -0.3 -0.7 -1.1 -1.3 -1.9 -2.5 -3.0 -2.1 -0.4 -0.8 -1.5 -1.7 -0.1 3.1 3.5 2.0 0.8 1.6 3.1 1.4 2.5 4.5 7.2 5.7 5.0 5.9 6.5 6.5 6.5 6.5 6.4 6.5 6.2 6.5 6.5 6.5 6.4 6.5 6.6 6.5 6.8 7.0 7.3 6.9
0.0 -0.4 -0.8 -1.2 -1.4 -1.9 -2.7 -2.1 -1.5 0.2 1.2 1.7 4.3 3.9 2.5 5.1 5.0 3.9 0.4 3.6 5.5 2.8 6.2 6.1 4.0 6.5 6.5 6.5 6.6 6.5 6.5 6.5 6.6 6.5 6.5 6.5 6.5 6.5 6.7 6.7 6.7 6.7 6.8 6.9 6.9
0.6 0.0 -0.6 -1.4 -1.6 -1.9 -2.2 -0.7 1.6 3.4 3.2 4.4 5.0 4.5 4.3 5.2 5.4 5.3 3.5 4.1 5.2 4.4 6.5 5.3 6.5 6.5 6.5 6.4 6.5 6.4 6.6 6.4 6.6 6.5 6.4 6.5 6.4 6.5 6.6 6.5 6.5 6.5 6.5 6.3 6.4
1.1 0.8 -0.2 -1.1 -1.5 -1.9 -1.9 3.4 5.4 6.6 5.8 3.3 1.8 3.8 4.1 5.5 6.6 4.7 4.8 4.7 5.5 6.5 6.5 6.5 6.5 6.5 6.6 6.6 6.6 6.6 6.4 6.5 6.5 6.5 6.5 6.5 6.5 6.5 6.5 6.5 6.6 6.6 6.5 6.2 5.7
1.6 1.4 0.8 -0.9 -1.7 -2.0 -2.0 3.7 2.7 3.8 5.2 4.2 3.0 4.0 3.3 3.6 5.7 3.3 5.2 4.5 6.5 6.5 6.5 6.5 6.5 6.6 6.5 6.5 6.5 6.5 6.5 6.5 6.5 6.6 6.5 6.5 6.5 6.4 6.5 6.5 6.7 6.8 6.8 6.6 5.7
1.7 1.5 1.3 -0.3 0.0 -3.5 1.7 1.3 0.1 1.1 6.5 6.5 6.0 5.1 5.1 3.5 6.1 4.0 4.3 4.9 6.2 6.5 6.5 6.5 6.4 6.5 6.5 6.5 6.5 6.5 6.5 6.5 6.4 6.5 6.5 6.6 6.5 6.5 6.5 6.5 6.5 6.5 6.6 6.5 6.2
1.8 1.5 1.3 0.3 -1.8 -1.2 1.6 -1.4 -0.3 1.9 6.6 6.5 6.1 6.1 4.8 5.7 5.5 5.5 4.2 5.7 6.5 6.5 6.5 6.5 6.5 6.4 6.5 6.5 6.6 6.5 6.5 6.4 6.6 6.5 6.5 6.5 6.5 6.5 6.6 6.5 6.5 6.4 6.7 6.8 6.0
1.6 1.3 1.1 0.0 -1.8 -1.2 -2.3 -3.0 0.8 6.5 6.6 6.5 6.4 6.5 6.5 6.3 6.1 6.5 5.9 5.7 4.4 6.5 6.6 6.5 5.7 6.4 6.5 6.5 6.5 6.5 6.5 6.5 6.5 6.5 6.5 6.5 6.5 6.5 6.5 6.5 6.5 6.4 6.6 6.8 6.9
1.4 1.1 0.8 1.8 3.7 1.1 -2.2 0.8 6.4 6.5 6.6 6.5 6.5 6.5 6.5 6.5 6.5 6.4 6.5 6.5 6.5 6.5 6.5 6.5 6.5 6.5 6.3 6.5 6.5 6.5 6.5 6.5 6.5 6.5 6.4 6.5 6.5 6.5 6.5 6.5 6.5 6.5 6.4 6.6 6.7
1.6 1.0 0.3 3.0 2.4 0.0 0.2 5.9 6.5 6.5 6.5 6.5 6.4 6.5 6.4 6.5 6.5 6.5 6.5 6.5 6.5 6.5 6.6 6.5 6.4 6.5 6.6 6.5 6.5 6.5 6.5 6.5 6.4 6.5 6.5 6.5 6.5 6.5 6.5 5.1 4.1 4.8 5.3 6.4 6.7
2.4 -2.2 -0.3 1.7 2.6 -0.3 2.9 6.5 6.5 6.5 6.5 6.5 6.5 6.5 6.5 6.6 6.5 6.5 6.5 6.5 6.5 6.5 6.5 6.5 6.5 6.5 6.5 6.5 6.5 6.5 6.5 6.5 6.6 6.5 6.5 6.5 6.5 6.6 6.4 6.5 6.0 4.8 4.4 5.2 5.8
1.7 -2.2 0.3 2.8 1.8 1.4 5.7 6.5 6.5 6.5 6.5 6.5 6.5 6.5 6.5 6.5 6.5 6.5 6.5 6.4 6.5 6.5 6.5 6.5 6.5 6.6 6.5 6.2 6.5 6.4 6.4 6.5 6.5 6.5 6.5 6.5 6.5 6.5 6.5 6.5 6.5 6.4 5.2 4.6 3.9
-0.2 1.9 3.8 2.8 2.4 3.0 6.4 6.4 6.5 6.1 6.3 6.5 6.5 6.5 6.5 6.5 6.4 6.5 6.6 6.5 6.5 6.5 6.5 6.6 6.5 6.5 6.5 6.5 6.5 6.5 6.5 6.5 6.5 6.5 6.5 6.5 6.5 6.5 6.4 6.4 6.5 6.4 3.7 3.9 3.8
2.0 6.4 3.7 1.5 5.0 5.3 6.5 6.5 6.3 6.4 6.2 6.5 6.5 6.5 6.5 6.5 6.5 6.5 6.5 6.5 6.2 6.5 6.5 6.5 6.6 6.5 6.5 6.5 6.5 6.4 6.5 6.5 6.5 6.6 6.5 6.5 6.5 6.5 6.5 6.5 5.5 4.6 3.5 3.4 2.8
5.5 3.6 2.6 3.4 6.5 6.5 6.5 6.6 6.6 6.5 6.5 6.5 6.5 6.5 6.5 6.5 6.5 6.5 6.5 6.4 6.2 6.6 6.5 6.5 6.5 6.5 6.4 6.5 6.4 6.5 6.5 6.6 6.5 6.5 6.5 6.5 6.5 6.5 6.5 6.5 4.2 4.7 4.4 3.0 3.1
4.8 6.5 3.5 3.2 4.5 6.5 6.5 6.5 6.5 6.9 6.5 6.5 6.5 6.3 6.5 6.5 6.5 6.5 6.4 6.5 6.3 6.4 6.8 6.3 6.5 6.5 6.5 6.5 6.5 6.5 6.5 6.5 6.5 6.5 6.5 6.4 6.5 6.6 6.5 6.4 6.1 2.9 2.1 1.9 1.4
3.7 5.8 6.4 6.5 6.1 6.4 6.5 6.5 6.5 6.5 6.5 6.4 6.5 6.5 6.4 6.4 6.5 6.5 6.5 6.5 6.5 6.5 6.5 6.5 6.5 6.5 6.5 6.5 6.5 6.5 6.5 6.5 6.5 6.5 6.5 6.5 6.5 6.5 6.6 6.5 5.4 2.4 0.9 0.2 -0.6
4.8 5.6 6.6 6.6 5.7 6.4 6.5 6.5 6.5 6.5 6.5 6.4 6.6 6.5 6.4 6.5 6.5 6.5 6.4 6.5 6.5 6.5 6.5 6.5 6.5 6.5 6.4 6.5 6.5 6.5 6.5 6.5 6.5 6.5 6.5 6.5 6.5 6.5 4.2 2.1 3.7 1.4 1.5 -0.3 -1.0
4.7 5.8 6.6 6.6 6.2 6.5 6.5 6.5 6.5 6.6 6.7 6.8 6.4 6.5 6.5 6.5 6.4 6.2 5.4 5.2 6.1 6.6 6.5 6.5 6.5 6.5 6.5 6.5 6.5 6.5 6.5 6.5 6.5 6.5 6.4 6.5 6.5 6.6 6.5 6.5 3.4 0.4 0.2 -0.5 -0.7
Wind_Speed
25 26 27 26 26 26 25 25 26 26 25 25 26 26 26 26 23 1 5 10 7 18 19 10 2 3 5 3 4 2 2 2 3 7 4 6 4 4 5 11 3 4 5 10 16
27 27 27 27 27 28 27 26 25 25 25 25 25 25 23 24 4 6 10 7 8 22 9 11 7 6 1 2 1 3 2 5 5 7 8 9 9 9 5 10 4 8 15 19 16
26 27 28 28 28 28 28 27 26 25 24 24 23 22 21 18 6 7 3 8 17 17 7 6 7 6 2 4 5 4 5 4 5 7 14 13 5 3 12 4 5 18 21 20 17
28 28 28 29 28 29 29 29 28 27 25 23 20 19 20 3 6 3 8 12 17 7 4 6 5 5 4 5 5 2 10 6 4 8 9 14 9 5 7 3 11 20 25 23 20
29 30 30 30 30 31 30 29 29 27 25 21 16 14 5 2 10 5 6 16 10 9 5 6 6 5 4 4 2 5 6 6 9 15 8 13 5 3 5 5 17 18 19 19 17
30 31 31 32 32 32 32 31 29 28 25 19 12 6 2 6 6 4 4 9 8 7 8 6 7 7 4 4 2 3 6 4 9 12 8 9 5 5 2 11 18 20 19 16 17
31 31 31 33 35 35 35 34 31 31 26 17 10 5 2 17 2 3 3 5 8 6 7 5 1 3 2 3 3 3 3 7 5 6 5 11 1 4 10 14 16 17 17 14 13
31 32 33 33 35 37 39 37 32 23 13 9 14 6 8 6 10 10 7 5 3 4 4 3 4 4 3 4 5 2 4 4 4 8 4 6 5 5 13 17 15 15 14 14 15
32 33 34 36 37 38 41 36 18 10 11 20 8 4 9 3 3 8 7 7 6 5 3 3 5 4 1 3 3 5 5 4 3 8 7 4 3 8 13 14 15 15 14 13 12
33 35 35 36 39 39 40 28 5 6 9 5 3 2 4 4 4 3 4 8 4 9 5 4 3 3 2 4 6 5 4 4 6 8 8 5 2 12 14 14 17 15 14 13 13
34 36 37 37 39 39 17 4 5 3 5 7 4 5 6 8 4 2 4 9 6 5 7 5 4 8 11 11 4 5 5 7 4 4 5 3 4 13 13 11 13 13 14 14 14
33 36 39 39 39 27 6 5 6 4 11 12 19 17 22 3 5 4 9 7 6 6 7 4 8 8 4 2 5 4 4 3 1 5 6 5 1 10 15 17 15 15 15 16 14
33 34 37 40 41 4 3 4 3 1 5 9 9 7 7 12 10 8 10 6 7 8 8 7 4 12 7 5 6 4 6 5 6 5 4 5 3 6 11 12 13 14 14 13 16
34 36 37 41 4 5 5 4 8 3 4 8 5 7 5 10 6 12 11 7 4 12 10 6 6 13 7 7 6 6 7 6 6 4 4 5 5 5 7 16 17 18 17 17 17
36 38 37 15 4 4 6 16 9 2 6 2 3 1 5 10 5 11 8 3 9 8 9 9 8 11 13 16 10 9 8 9 4 3 4 1 1 6 8 13 20 21 20 20 21
37 37 38 3 2 7 15 11 2 3 8 6 3 2 3 3 5 4 6 3 5 6 3 9 4 10 9 5 11 7 6 8 5 4 1 6 6 7 7 10 11 16 21 23 21
40 38 22 2 4 9 10 3 2 5 7 7 5 6 5 5 4 7 13 11 9 8 6 4 8 3 6 6 3 6 7 2 2 1 6 0 5 12 7 7 14 17 23 23 22
40 36 5 5 14 9 3 5 3 3 7 6 7 11 5 1 7 7 13 15 3 7 5 8 7 11 5 9 8 8 9 6 4 4 4 5 6 11 3 9 12 14 17 17 20
33 4 5 3 11 2 4 2 7 3 6 9 10 4 5 5 4 6 9 22 20 11 8 7 7 1 6 5 10 4 5 7 7 4 3 4 7 10 5 8 6 10 9 18 21
7 4 4 10 5 4 4 6 5 3 7 5 4 4 4 7 7 5 8 13 9 9 7 7 4 5 8 6 1 8 10 4 3 6 4 5 4 6 4 7 11 6 13 15 19
4 4 3 18 2 4 3 6 5 5 6 4 4 6 5 5 4 4 2 6 2 10 7 7 4 4 7 8 9 4 4 5 6 5 7 2 8 8 9 10 11 12 9 13 16
2 4 4 7 3 2 2 8 7 4 2 8 4 7 6 6 5 4 4 4 10 3 15 8 6 5 9 2 7 8 9 7 6 4 1 4 11 6 9 9 8 13 8 9 12
5 3 5 4 4 5 8 6 5 5 4 3 3 2 6 4 5 4 4 3 12 9 5 8 3 3 2 4 3 6 5 6 7 4 8 7 12 3 5 7 6 7 4 7 5
3 4 4 4 1 3 6 7 5 8 6 3 4 5 5 4 7 6 5 6 11 5 8 1 5 14 11 4 6 4 5 5 8 6 6 7 2 4 4 5 8 8 6 5 8
2 2 1 4 3 5 6 4 8 7 5 4 3 5 5 4 5 3 3 6 4 9 6 3 11 7 10 6 6 6 8 9 6 7 13 8 8 10 9 10 8 7 6 7 7
0 1 2 6 4 5 4 1 5 6 4 4 3 12 6 2 2 5 7 3 3 7 6 6 1 5 9 10 8 4 11 15 9 6 5 6 10 9 10 8 8 9 7 10 10
2 2 1 4 5 3 3 4 4 7 6 12 9 8 6 1 5 13 9 10 6 4 4 4 2 4 13 8 6 8 8 7 5 5 10 8 10 6 7 9 11 12 8 10 10
Wind_Direction
0 358 354 351 348 345 343 339 336 334 332 330 331 331 331 332 324 181 244 220 179 155 129 137 149 144 156 198 219 180 40 253 190 165 182 162 121 154 100 139 158 150 151 142 148
358 355 352 349 346 342 338 334 331 328 326 325 327 328 329 333 317 276 249 210 166 154 129 158 158 144 170 229 232 125 137 234 207 158 173 161 144 144 124 160 64 87 109 131 146
354 351 348 345 342 339 334 330 326 323 320 320 322 325 327 328 325 252 335 191 165 170 145 146 116 135 198 174 201 182 222 221 250 169 149 152 131 133 138 216 181 150 143 149 157
350 347 345 341 338 334 330 325 321 316 315 315 317 321 322 303 272 95 80 124 158 182 127 150 135 163 197 215 187 188 241 224 138 143 137 158 128 124 174 227 144 163 155 155 167
347 344 341 338 334 330 325 320 313 310 308 306 308 317 343 259 245 169 103 132 144 158 212 172 152 169 199 211 220 201 271 231 161 155 139 131 150 158 214 94 135 149 159 165 166
345 342 338 335 331 326 321 315 312 306 298 291 287 292 184 244 242 252 257 148 162 158 164 179 195 200 205 238 182 260 298 61 148 143 136 132 137 118 134 130 140 153 166 173 177
343 340 337 334 329 326 320 317 314 304 292 268 236 192 207 234 218 21 27 165 164 162 148 218 220 147 167 255 276 312 86 62 78 133 140 106 145 219 145 147 152 162 168 176 185
341 338 335 332 329 325 322 319 318 313 303 206 176 178 242 242 257 271 225 267 141 161 127 157 184 220 205 287 19 66 63 107 198 133 165 151 255 146 154 152 164 168 175 180 186
340 336 335 333 330 326 323 318 324 19 92 131 129 192 262 287 208 230 156 192 156 154 180 127 133 188 141 150 32 1 158 146 183 164 154 212 238 158 161 164 173 176 183 192 198
340 336 335 334 329 330 323 316 253 98 113 192 136 330 257 223 232 178 182 167 146 121 132 154 79 122 39 114 193 187 145 142 185 193 165 176 226 158 171 174 185 185 190 199 203
339 335 334 334 328 331 330 18 10 352 12 228 215 273 284 308 324 205 157 136 118 107 153 176 133 192 196 191 148 145 129 165 230 200 138 218 162 175 182 188 190 195 196 205 210
340 337 333 332 329 329 333 72 81 274 298 250 243 251 259 21 312 294 142 127 147 161 129 84 206 205 202 186 133 127 120 176 236 166 146 131 269 187 191 206 194 197 203 206 210
341 338 334 332 327 29 331 98 34 296 241 283 215 209 204 161 212 244 170 152 147 143 167 156 227 159 156 180 175 178 165 168 159 108 53 120 304 181 207 211 209 211 213 215 212
341 338 337 331 30 322 324 354 322 199 309 272 246 263 154 135 238 187 185 158 157 177 136 192 198 168 171 183 148 196 177 155 153 115 188 146 260 239 204 213 214 212 208 211 216
339 336 339 347 289 328 299 328 324 102 321 240 202 134 178 187 161 209 168 102 163 159 131 220 173 165 178 197 160 216 154 162 132 112 93 347 76 261 179 227 222 219 212 213 213
336 333 337 348 332 252 313 307 73 56 246 311 73 25 121 272 307 82 153 114 147 121 110 192 179 163 194 155 169 170 86 49 53 103 52 209 160 269 188 212 234 216 213 213 210
333 328 328 300 285 324 321 10 38 197 328 338 342 358 311 225 233 176 178 168 161 138 164 162 209 202 150 112 113 84 85 28 26 78 210 243 134 241 249 226 223 209 208 208 206
330 325 308 234 288 317 2 57 222 267 284 347 333 307 224 169 246 203 170 181 229 113 134 157 200 179 195 172 166 169 154 148 152 193 224 96 223 246 243 213 218 220 210 205 203
329 337 308 266 296 82 65 112 208 262 333 319 320 333 315 338 16 182 191 193 189 162 145 143 233 197 173 145 140 184 159 175 104 7 101 214 286 304 311 293 256 229 181 193 201
327 353 285 311 341 70 89 224 240 243 348 343 322 5 313 314 359 12 175 193 183 174 138 199 171 218 191 112 147 151 169 124 15 134 200 283 276 235 277 296 297 268 212 200 200
27 356 262 332 69 51 189 231 262 267 357 329 319 325 285 297 327 301 304 1 186 179 143 145 118 222 122 194 160 141 162 60 112 138 167 209 260 203 227 247 264 279 228 201 196
24 341 317 351 45 52 335 319 300 302 267 249 242 231 250 301 298 292 306 16 341 302 185 199 144 186 194 176 170 166 174 146 138 196 125 157 256 197 220 237 259 271 262 201 197
331 274 309 43 52 344 319 297 277 310 292 331 292 339 292 267 293 271 275 359 14 23 194 178 195 135 104 8 354 179 172 121 105 96 184 155 244 267 270 262 284 277 234 192 185
15 343 323 20 308 358 317 311 307 306 279 335 273 337 335 263 210 269 324 314 349 2 334 125 154 195 206 205 134 133 143 158 154 174 166 224 176 278 257 260 287 314 304 215 195
37 282 1 302 332 317 302 282 310 341 333 300 356 0 301 289 310 260 336 314 312 351 360 100 206 181 193 161 154 155 172 169 162 170 195 221 214 245 247 262 252 252 282 314 251
17 348 1 288 286 298 290 319 305 337 305 309 16 330 302 285 138 295 14 274 286 325 12 352 287 132 197 201 184 203 189 180 185 157 206 173 239 209 248 275 290 264 277 271 250
274 265 193 276 308 324 283 345 306 345 272 251 308 320 302 219 297 271 226 255 259 328 315 17 77 134 211 160 118 242 207 167 169 183 182 193 227 193 236 231 242 261 243 255 268